METEOR 2-8 DEB

Satellite information

Favourite Embed

Satellite Type and Status

DEBRISIN ORBIT

Key statistics

Satellite METEOR 2-8 DEB at a glance.

Uptime

15751

Days in orbit

Revolutions

≈ 14.3

Per day

Orbit

LEO

Low Earth Orbit

Inclination

82.5

Latest

Satellite identification and parameters

Extended collection of information and parameters for METEOR 2-8 DEB.

Object identification

Identified? True

Debris? True

Object name: METEOR 2-8 DEB

International designator: 1982-025BE

Object number (NORAD): 36867

Object ID (CCSDS): 36867

Country: COMMONWEALTH OF INDEPENDENT STATES (CIS)

Current information (Y/N): Y

RCS size: SMALL

Orbital parameters

Period: 100.997 minutes

Inclination: 82.5251 deg

SMA: 7184.0 km

Apoapsis: 829.543 km

Periapsis: 782.186 km

RAAN: 173.5328 deg

Eccentricy: 0.003296

Argument of periapsis: 103.4309 deg

Mean anomaly: 257.0551 deg

Mean motion: 14.25782536 rev/day

Mean motion (dot): 0.00004238 rev/day2

B* drag term: 0.0017671 1/REarth

Two-line elements (TLE)

Creation date: May 7, 2025, 10:36 p.m.

Reference frame: TEME

Reference center: EARTH

Epoch: May 7, 2025, 8:32 p.m. UTC

TLE line 0: 0 METEOR 2-8 DEB

TLE line 1: 1 36867U 82025BE 25127.85596105 .00004238 00000-0 17671-2 0 9994

TLE line 2: 2 36867 82.5251 173.5328 0032960 103.4309 257.0551 14.25782536129879

Live tracking on map

Real-time ground track for satellite METEOR 2-8 DEB.

In-orbit conjunctions

A list of the most updated potential collisions computed for object METEOR 2-8 DEB.

Target Orbit TCA Probability of collision Miss distance Type
CZ-6A DEB LEO 2024-10-31 00:12:51 0.0001098829 241.0 (m) DEBRIS
THOR BURNER 2 R/B SSO 2024-09-21 08:34:05 0.0001796167 299.0 (m) ROCKET BODY

Associated space launch

Second generation soviet meteorological satellite

METEOR 2-8 DEB was lifted into orbit during the mission ‘Tsiklon-3 | Meteor-2 8’, on board a Tsiklon-3 space rocket.

The launch took place on March 25, 1982, 9:50 a.m. from 32/1.

For more information about the launch, click the button.

Launch to space Tsiklon-3 | Meteor-2 8
Tsiklon-3 | Meteor-2 8

Agency: N/A

Status: Launch Successful

Launch date: March 25, 1982, 9:50 a.m. UTC

Rocket: Tsiklon-3

Launch pad: 32/1

Location: Plesetsk Cosmodrome, Russian Federation

...

Latest news about this satellite

There are no fresh news available about this satellite. Check back as we update our databases every day.


Newsletter sign-up

Weekly statistics, charts and insights to help you stay on top of the space industry.